Flag for Austria Weather past 2 weeks in Melk, Lower Austria, Austria

Now
63 °F

Mild.


Feels Like: 63 °F
Forecast: 58 / 92 °F
Wind: No wind

Location: Amstetten

Current Time: Jul 4, 2015 at 5:28:54 AM

Latest Report: Jul 4, 2015 at 4:00 AM


Visibility: N/A

Pressure: 30.24 "Hg

Humidity: 89%

Dew point: 60 °F

Location of MelkLocation

Historic Weather in Melk — Graph

°F

Melk temperature yesterday

Maximum temperature yesterday: 87 °F (at 5:00 PM)
Minimum temperature yesterday: 61 °F (at 6:00 AM)
Average temperature yesterday: 75 °F

Past Weeks' High & Low Weather Summary

 TemperatureHumidityPressure
High87 °F (Jul 3, 5:00 PM)100% (Jul 1, 3:00 AM)30.28 "Hg (Jul 1, 3:00 AM)
Low45 °F (Jun 25, 6:00 AM)31% (Jun 25, 3:00 PM)29.70 "Hg (Jun 23, 3:00 AM)
Average64 °F73%30.11 "Hg
* Reported Jun 19 4:00 AM — Jul 4 4:00 AM, Melk, Weather by CustomWeather, © 2015

Note: Actual official high and low records may vary slightly from our data, if they occured in-between our weather recording intervals... More about our weather records

Advertising

Melk weather history for previous 24 hours

 ConditionsComfort  
Time TempWeatherWind HumidityBarometerVisibility
4:00 AM
Sat, Jul 4
63 °FMild.No wind89%30.24 "HgN/A
3:00 AM65 °FMild.2 mph85%30.24 "HgN/A
2:00 AM66 °FMild.1 mph83%30.25 "HgN/A
1:00 AM66 °FMild.1 mph85%30.26 "HgN/A
12:00 AM67 °FMild.1 mph83%30.26 "HgN/A
11:00 PM
Fri, Jul 3
71 °FMild.2 mph75%30.25 "HgN/A
10:00 PM74 °FMild.1 mph68%30.24 "HgN/A
9:00 PM78 °FWarm.1 mph62%30.22 "HgN/A
8:00 PM82 °FWarm.2 mph51%30.20 "HgN/A
7:00 PM85 °FWarm.3 mph42%30.20 "HgN/A
6:00 PM87 °FWarm.3 mph42%30.20 "HgN/A
5:00 PM87 °FWarm.3 mph40%30.21 "HgN/A
4:00 PM86 °FWarm.3 mph42%30.22 "HgN/A
3:00 PM86 °FWarm.3 mph45%30.23 "HgN/A
2:00 PM84 °FWarm.2 mph51%30.24 "HgN/A
1:00 PM82 °FWarm.3 mph53%30.25 "HgN/A
12:00 PM79 °FWarm.3 mph53%30.26 "HgN/A
11:00 AM77 °FWarm.2 mph53%30.27 "HgN/A
10:00 AM74 °FMild.3 mph55%30.27 "HgN/A
9:00 AM71 °FMild.2 mph59%30.28 "HgN/A
8:00 AM68 °FSunny.3 mph65%30.28 "HgN/A
7:00 AM66 °FMild.1 mph71%30.28 "HgN/A
6:00 AM61 °FCool.1 mph84%30.27 "HgN/A
Weather by CustomWeather, © 2015

See weather overviewHow to use our weather pages